Sandberg, CA

8:53 PM PDT on May 28, 2017 (GMT -0700)
Sandberg

Weather History for KSDB - March, 2012

Change the Weather History Date:

Saturday, March 10, 2012

  Actual Average Record
Temperature  
Mean Temperature 56 °F 46 °F  
Max Temperature 66 °F 53 °F 74 °F (2017)
Min Temperature 45 °F 39 °F 22 °F (1935)
Degree Days  
Heating Degree Days 9 19  
Month to date heating degree days 176 194  
Since 1 July heating degree days 2734 2953  
Cooling Degree Days 0 0  
Month to date cooling degree days 0 0  
Year to date cooling degree days 0 0  
Growing Degree Days 5 (Base 50)    
Moisture  
Dew Point 12 °F    
Average Humidity 24    
Maximum Humidity 39    
Minimum Humidity 9    
Precipitation  
Precipitation 0.00 in 0.06 in 1.58 in (1995)
Month to date precipitation T 0.73  
Year to date precipitation 0.80 6.38  
Since 1 July precipitation 3.30  
Sea Level Pressure  
Sea Level Pressure 29.98 in    
Wind  
Wind Speed 13 mph (NW)    
Max Wind Speed 32 mph    
Max Gust Speed 32 mph    
Visibility 10 miles    
Events      
T = Trace of Precipitation, MM = Missing Value Source: NWS Daily Summary

Daily Weather History Graph

Daily Weather History Graph

Search for Another Location

Airport or City:

Trip Planner

Search our weather history database for the weather conditions in past years. The results will help you decide how hot, cold, wet, or windy it might be!

Date:

Astronomy

Mar. 10, 2012 Rise Set
Actual Time 6:11 AM PST 5:58 PM PST
Civil Twilight 5:46 AM PST 6:24 PM PST
Nautical Twilight 5:17 AM PST 6:53 PM PST
Astronomical Twilight 4:47 AM PST 7:22 PM PST
Moon 9:06 PM PST (3/10) 7:19 AM PST (3/10)
Length of Visible Light 12h 37m
Length of Day
11h 47m
Waning Gibbous, 92% of the Moon is Illuminated
Mar 10
Waning Gibbous
Mar 14
Last Quarter
Mar 22
New
Mar 30
First Quarter
Apr 6
Full

Hourly Weather History & Observations

Time (PST) Temp. Windchill Dew Point Humidity Pressure Visibility Wind Dir Wind Speed Gust Speed Precip Events Conditions
12:48 AM 48.9 °F - 12.0 °F 23% 30.06 in 10.0 mi NNW 25.3 mph 32.2 mph N/A   Clear
1:48 AM 48.9 °F - 8.1 °F 19% 30.04 in 10.0 mi NNW 16.1 mph 25.3 mph N/A   Clear
2:48 AM 48.9 °F - 3.0 °F 15% 30.02 in 10.0 mi NNW 15.0 mph 24.2 mph N/A   Clear
3:48 AM 50.0 °F - 3.0 °F 15% 29.99 in 10.0 mi North 10.4 mph 16.1 mph N/A   Clear
4:48 AM 50.0 °F - 3.9 °F 15% 29.99 in 10.0 mi NNW 12.7 mph 25.3 mph N/A   Clear
5:48 AM 48.9 °F - 5.0 °F 17% 30.00 in 10.0 mi NNW 23.0 mph 26.5 mph N/A   Clear
6:48 AM 48.9 °F - 6.1 °F 18% 30.01 in 10.0 mi NNW 19.6 mph - N/A   Clear
7:48 AM 52.0 °F - 6.1 °F 16% 30.02 in 10.0 mi NNW 15.0 mph - N/A   Clear
8:48 AM 55.0 °F - 9.0 °F 16% 30.03 in 10.0 mi NNW 15.0 mph - N/A   Clear
9:48 AM 57.9 °F - 1.9 °F 10% 30.01 in 10.0 mi NNW 16.1 mph - N/A   Clear
10:48 AM 62.1 °F - 5.0 °F 10% 29.99 in 10.0 mi North 6.9 mph 16.1 mph N/A   Clear
11:48 AM 63.0 °F - 3.0 °F 9% 29.98 in 10.0 mi NNW 16.1 mph 26.5 mph N/A   Clear
12:48 PM 64.9 °F - 3.0 °F 9% 29.96 in 10.0 mi North 9.2 mph 17.3 mph N/A   Clear
1:48 PM 64.0 °F - 7.0 °F 11% 29.94 in 10.0 mi NNW 11.5 mph 17.3 mph N/A   Clear
2:48 PM 63.0 °F - 9.0 °F 12% 29.93 in 10.0 mi NNW 13.8 mph 23.0 mph N/A   Clear
3:48 PM 62.1 °F - 16.0 °F 17% 29.92 in 10.0 mi SSE 6.9 mph - N/A   Clear
4:48 PM 57.9 °F - 23.0 °F 26% 29.93 in 10.0 mi SSE 12.7 mph - N/A   Clear
5:48 PM 53.1 °F - 28.0 °F 38% 29.94 in 10.0 mi South 11.5 mph 19.6 mph N/A   Clear
6:48 PM 51.1 °F - 26.1 °F 38% 29.95 in 10.0 mi South 10.4 mph - N/A   Clear
7:48 PM 50.0 °F - 25.0 °F 38% 29.96 in 10.0 mi North - - N/A   Clear
8:48 PM 48.9 °F - 16.0 °F 27% 29.96 in 10.0 mi SSW 8.1 mph - N/A   Clear
9:48 PM 48.0 °F - 24.1 °F 39% 29.95 in 10.0 mi SSW 10.4 mph - N/A   Clear
10:48 PM 46.0 °F 41.9 °F 23.0 °F 40% 29.94 in 10.0 mi SSW 8.1 mph - N/A   Clear
11:48 PM 46.4 °F 41.5 °F 17.6 °F 32% 30.02 in 10.0 mi SSW 10.4 mph - N/A   Clear